EW4719 Weather Reports


Display with metric or nautical units.
time (UTC)temp
F
wind
direction
speed
MPH
gust
MPH
rain 1hr
in
rain 24hr
in
rain mn
in
humidity
%
barometer
mb
20260505223118 40 79 0.0 3.0 0.00 0.00 0.00 78 1017.9
20260505221504 41 85 0.0 2.0 0.00 0.00 0.00 77 1018.2
20260505220125 41 75 0.0 3.0 0.00 0.00 0.00 77 1018.1
20260505214546 41 67 0.0 3.0 0.00 0.00 0.00 76 1018.0
20260505213101 41 64 1.0 6.0 0.00 0.00 0.00 75 1017.9
20260505211541 41 87 1.0 5.0 0.00 0.00 0.00 75 1017.9
20260505204600 42 61 2.0 6.0 0.00 0.00 0.00 74 1017.9
20260505203130 42 105 1.0 6.0 0.00 0.00 0.00 74 1017.8
20260505201534 42 54 1.0 8.0 0.00 0.00 0.00 74 1017.9
20260505200018 42 66 0.0 7.0 0.00 0.00 0.00 73 1017.8
20260505194557 42 53 2.0 8.0 0.00 0.00 0.00 73 1017.7
20260505193125 42 157 3.0 9.0 0.00 0.00 0.00 72 1017.7
20260505191512 43 83 3.0 9.0 0.00 0.00 0.00 71 1017.6
20260505190007 43 71 1.0 10.0 0.00 0.00 0.00 70 1017.6
20260505184544 43 63 5.0 12.0 0.00 0.00 0.00 69 1017.5
20260505183108 43 67 5.0 13.0 0.00 0.00 0.00 69 1017.5
20260505181604 43 333 3.0 12.0 0.00 0.00 0.00 69 1017.3
20260505180129 44 72 3.0 10.0 0.00 0.00 0.00 68 1017.5
20260505174528 44 95 3.0 13.0 0.00 0.00 0.00 68 1017.3
20260505173018 44 57 2.0 12.0 0.00 0.00 0.00 70 1017.4
20260505171553 44 73 4.0 13.0 0.00 0.00 0.00 70 1017.4
20260505170114 45 80 4.0 11.0 0.00 0.00 0.00 72 1017.3
20260505164502 45 64 4.0 9.0 0.00 0.00 0.00 70 1017.3
20260505163009 45 76 4.0 13.0 0.00 0.00 0.00 72 1017.2
20260505161536 45 73 2.0 13.0 0.00 0.00 0.00 71 1017.2
20260505153122 45 44 3.0 14.0 0.00 0.00 0.00 73 1017.2
20260505151531 46 30 5.0 13.0 0.00 0.00 0.00 74 1017.1
20260505140135 45 92 6.0 13.0 0.00 0.00 0.00 78 1016.9
20260505130133 45 70 4.0 13.0 0.00 0.00 0.00 78 1016.9
20260505123058 45 55 6.0 17.0 0.00 0.00 0.00 76 1016.7
20260505121558 46 74 8.0 15.0 0.00 0.00 0.00 76 1016.6
20260505120112 46 93 10.0 22.0 0.00 0.00 0.00 75 1016.5
20260505114501 46 61 9.0 21.0 0.00 0.00 0.00 77 1016.3
20260505113003 48 51 8.0 17.0 0.00 0.00 0.00 77 1016.2
20260505111531 49 76 11.0 19.0 0.00 0.00 0.00 76 1016.0
20260505101603 49 27 2.0 10.0 0.00 0.00 0.00 67 1015.7
20260505100124 48 46 3.0 7.0 0.00 0.00 0.00 66 1015.7
20260505094532 48 86 3.0 11.0 0.00 0.00 0.00 68 1015.6
20260505093005 48 9 4.0 8.0 0.00 0.00 0.00 68 1015.5
20260505091537 47 350 4.0 8.0 0.00 0.00 0.00 68 1015.4
20260505090101 47 30 3.0 8.0 0.00 0.00 0.00 69 1015.3
20260505084603 47 322 3.0 11.0 0.00 0.00 0.00 70 1015.3
20260505083014 48 355 4.0 8.0 0.00 0.00 0.00 70 1015.3
20260505081533 47 10 3.0 8.0 0.00 0.00 0.00 74 1015.1
20260505074543 46 336 2.0 8.0 0.00 0.00 0.00 80 1014.9
20260505073138 46 272 3.0 9.0 0.00 0.00 0.00 81 1014.8
20260505071605 45 314 5.0 11.0 0.00 0.00 0.00 83 1014.8
20260505070123 46 304 2.0 8.0 0.00 0.00 0.00 87 1014.8
20260505064514 46 311 3.0 8.0 0.00 0.00 0.00 88 1014.8
20260505063050 45 277 3.0 8.0 0.00 0.00 0.00 89 1014.8
20260505061544 45 298 3.0 6.0 0.00 0.00 0.00 90 1014.6
20260505060057 45 252 2.0 5.0 0.00 0.00 0.00 90 1014.4
20260505054549 45 261 2.0 8.0 0.00 0.00 0.00 90 1014.3
20260505053114 45 265 1.0 6.0 0.00 0.00 0.00 89 1014.2
20260505051609 44 268 1.0 5.0 0.00 0.00 0.00 89 1014.3
20260505050118 44 250 2.0 7.0 0.00 0.00 0.00 89 1014.2
20260505041546 44 254 2.0 7.0 0.00 0.00 0.00 88 1014.0
20260505040116 44 258 2.0 5.0 0.00 0.00 0.00 87 1014.2
20260505034612 44 269 2.0 6.0 0.00 0.00 0.00 87 1014.2
20260505033128 44 263 2.0 7.0 0.00 0.00 0.00 87 1014.1
20260505031537 44 302 2.0 8.0 0.00 0.00 0.00 87 1014.1
20260505030100 44 256 2.0 9.0 0.00 0.00 0.00 87 1014.1
20260505024608 44 271 3.0 9.0 0.00 0.00 0.00 87 1014.1
20260505023126 44 284 2.0 8.0 0.00 0.00 0.00 87 1014.1
20260505021531 44 249 4.0 8.0 0.00 0.00 0.00 87 1014.1
20260505020055 44 263 4.0 9.0 0.00 0.00 0.00 87 1014.2
20260505014550 44 325 3.0 8.0 0.00 0.00 0.00 86 1014.2
20260505013130 44 261 3.0 11.0 0.00 0.00 0.00 86 1014.2
20260505011506 44 224 3.0 9.0 0.00 0.00 0.00 85 1014.2
20260505010009 44 224 4.0 8.0 0.00 0.00 0.00 85 1014.2
20260505004545 44 254 4.0 10.0 0.00 0.00 0.00 85 1014.2
20260505003105 44 276 4.0 11.0 0.00 0.00 0.00 85 1014.2
20260505001554 44 326 5.0 12.0 0.00 0.00 0.00 84 1014.2
20260505000126 44 238 4.0 9.0 0.00 0.00 0.00 84 1014.3
20260504234527 44 283 4.0 11.0 0.00 0.00 0.00 83 1014.4
20260504233054 44 270 4.0 10.0 0.00 0.00 0.00 83 1014.5
20260504231538 45 252 3.0 8.0 0.00 0.00 0.00 82 1014.6
20260504230023 45 257 4.0 11.0 0.00 0.00 0.00 81 1014.5
20260504224545 45 252 5.0 11.0 0.00 0.00 0.00 81 1014.5